Date,TemperatureHighF,TemperatureAvgF,TemperatureLowF,DewpointHighF,DewpointAvgF,DewpointLowF,HumidityHigh,HumidityAvg,HumidityLow,PressureMaxIn,PressureMinIn,WindSpeedMaxMPH,WindSpeedAvgMPH,GustSpeedMaxMPH,PrecipitationSumIn
2014-1-1,38,24,9,25,15,0,78,70,55,30.31,30.04,17,5,17,0.00
2014-1-2,25,10,1,5,-3,-9,67,56,35,30.48,30.30,15,4,15,0.00
2014-1-3,39,23,3,25,11,-7,66,59,52,30.47,29.82,30,11,30,0.01
2014-1-4,48,31,16,30,21,9,76,65,49,30.09,29.78,27,8,27,0.00
2014-1-5,16,10,-1,9,-4,-25,76,54,33,30.51,30.03,21,8,21,0.00
2014-1-6,8,-2,-10,-14,-22,-32,53,37,27,30.58,30.42,23,6,23,0.00
2014-1-7,39,20,-3,22,5,-17,70,53,43,30.41,30.10,21,5,21,0.00
2014-1-8,36,26,19,21,15,8,72,62,48,30.36,30.21,15,6,15,0.00
2014-1-9,32,24,17,32,18,8,97,80,62,30.34,30.03,12,4,12,0.00
2014-1-10,43,37,32,42,37,32,99,98,97,30.03,29.58,14,5,14,0.06
2014-1-11,49,37,29,36,32,26,99,82,55,29.97,29.69,23,6,23,0.01
2014-1-12,65,48,32,38,32,25,81,57,35,29.93,29.54,35,11,35,0.00
2014-1-13,52,41,34,34,30,24,88,67,37,29.93,29.69,21,6,21,0.00
2014-1-14,49,39,24,34,19,2,72,48,22,30.25,29.80,30,9,30,0.00
2014-1-15,37,28,17,24,12,0,66,52,25,30.27,29.85,18,6,18,0.00
2014-1-16,49,38,24,30,20,6,82,50,29,30.08,29.81,40,14,40,0.06
2014-1-17,36,25,18,9,0,-7,54,34,22,30.21,30.03,29,11,29,0.00
2014-1-18,52,35,21,30,20,7,77,55,40,30.15,29.77,42,12,42,0.17
2014-1-19,64,40,18,29,23,12,86,55,21,30.15,29.84,21,6,21,0.00
2014-1-20,56,41,21,33,26,10,66,55,39,30.30,29.88,24,5,24,0.00
2014-1-21,20,14,4,11,-5,-14,68,43,24,30.49,30.15,17,6,17,0.00
2014-1-22,40,26,8,18,5,-16,64,43,23,30.51,30.10,33,7,33,0.00
2014-1-23,20,8,2,-7,-12,-16,55,39,23,30.82,30.51,17,5,17,0.00
2014-1-24,43,26,4,21,3,-13,55,39,24,30.66,29.82,34,11,34,0.00
2014-1-25,48,41,30,36,27,15,86,60,29,30.06,29.80,24,8,24,0.00
2014-1-26,61,43,20,35,25,-7,84,53,25,30.22,29.69,24,10,36,0.02
2014-1-27,21,12,6,-4,-14,-21,40,29,23,30.50,29.92,21,6,21,0.00
2014-1-28,22,14,0,-4,-9,-13,61,37,24,29.92,29.92,10,3,10,0.00
2014-1-29,20,20,20,-8,-8,-8,28,28,28,29.92,29.92,5,5,10,0.00
2014-1-30,48,23,20,18,-5,-8,32,28,28,29.92,29.92,14,6,14,0.00
2014-1-31,30,23,20,21,16,8,97,76,49,29.92,29.92,11,4,18,0.00
2014-2-1,27,24,20,25,21,18,97,88,82,29.92,29.92,6,2,9,0.01
2014-2-2,29,22,10,21,14,0,84,70,44,29.92,29.92,7,1,10,0.00
2014-2-3,35,21,7,21,11,-2,81,66,53,29.92,29.92,8,3,14,0.04
2014-2-4,27,23,17,21,18,13,89,82,69,29.92,29.92,11,5,18,0.00
2014-2-5,17,7,-1,13,-4,-12,83,61,43,29.92,29.92,11,3,21,0.00
2014-2-6,15,4,-3,-4,-11,-14,61,49,33,29.92,29.92,8,1,11,0.24
2014-2-7,18,11,4,6,-2,-9,65,55,42,29.92,29.92,6,2,10,0.00
2014-2-8,29,24,16,24,17,6,90,75,64,29.92,29.92,8,1,11,0.00
2014-2-9,27,21,14,24,14,3,90,73,60,29.92,29.92,8,2,13,0.00
2014-2-10,22,12,7,3,-4,-7,61,50,36,29.92,29.92,8,2,15,0.00
2014-2-11,24,11,0,1,-5,-11,63,47,33,29.92,29.92,8,2,11,0.24
2014-2-12,40,23,8,23,10,-7,75,57,43,29.92,29.92,8,2,11,0.00
2014-2-13,48,34,24,34,26,18,85,74,56,29.92,29.92,14,3,18,0.00
2014-2-14,41,39,34,34,33,29,83,77,73,29.92,29.92,14,5,24,0.00
2014-2-15,40,40,40,33,33,33,75,75,75,29.92,29.92,5,5,22,0.00
2014-2-16,40,40,40,33,33,33,75,75,75,29.92,29.92,5,5,22,0.00
2014-2-17,40,40,40,33,33,33,75,75,75,29.92,29.92,5,5,22,0.00
2014-2-18,40,40,40,33,33,33,75,75,75,29.92,29.92,5,5,22,0.00
2014-2-19,40,40,40,33,33,33,75,75,75,29.92,29.92,5,5,22,0.00
2014-2-20,40,40,40,33,33,33,75,75,75,29.92,29.92,5,5,22,0.00
2014-2-21,40,40,40,33,33,33,75,75,75,29.92,29.92,5,5,22,0.00
2014-2-22,40,40,40,33,33,33,75,75,75,29.92,29.92,5,5,22,0.00
2014-2-23,40,40,40,33,33,33,75,75,75,29.92,29.92,5,5,22,0.00
2014-2-24,40,40,40,33,33,33,75,75,75,29.92,29.92,5,5,22,0.00
2014-2-25,40,40,40,33,33,33,75,75,75,29.92,29.92,5,5,22,0.00
2014-2-26,40,40,40,33,33,33,75,75,75,29.92,29.92,5,5,22,0.00
2014-2-27,40,40,40,33,33,33,75,75,75,29.92,29.92,5,5,22,0.00
2014-2-28,40,40,40,33,33,33,75,75,75,29.92,29.92,5,5,22,0.00
2014-3-1,40,40,40,33,33,33,75,75,75,29.92,29.92,5,5,22,0.00
2014-3-2,40,40,40,33,33,33,75,75,75,29.92,29.92,5,5,22,0.00
2014-3-3,40,40,40,33,33,33,75,75,75,29.92,29.92,5,5,22,0.00
2014-3-4,40,40,40,33,33,33,75,75,75,29.92,29.92,5,5,22,0.00
2014-3-5,40,40,40,33,33,33,75,75,75,29.92,29.92,5,5,22,0.00
2014-3-6,40,40,40,33,33,33,75,75,75,29.92,29.92,5,5,22,0.00
2014-3-7,40,40,40,33,33,33,75,75,75,29.92,29.92,5,5,22,0.00
2014-3-8,40,40,40,33,33,33,75,75,75,29.92,29.92,5,5,22,0.00
2014-3-9,40,40,40,33,33,33,75,75,75,29.92,29.92,5,5,22,0.00
2014-3-10,40,40,40,33,33,33,75,75,75,29.92,29.92,5,5,22,0.00
2014-3-11,40,40,40,33,33,33,75,75,75,29.92,29.92,5,5,22,0.00
2014-3-12,40,40,40,33,33,33,75,75,75,29.92,29.92,5,5,22,0.00
2014-3-13,40,40,40,33,33,33,75,75,75,29.92,29.92,5,5,22,0.00
2014-3-14,40,40,40,33,33,33,75,75,75,29.92,29.92,5,5,22,0.00
2014-3-15,40,40,40,33,33,33,75,75,75,29.92,29.92,5,5,22,0.00
2014-3-16,46,35,27,45,26,17,99,71,41,29.92,29.92,164,8,164,0.50
2014-3-17,54,36,18,31,23,14,88,62,35,29.92,29.92,14,4,22,0.00
2014-3-18,68,52,40,42,37,27,83,58,35,29.92,29.92,19,8,30,0.00
2014-3-19,57,44,35,37,29,20,88,60,26,29.92,29.92,24,7,30,0.00
2014-3-20,73,53,34,34,28,24,73,44,17,29.92,29.92,21,5,34,0.00
2014-3-21,68,55,46,38,33,25,63,45,26,29.92,29.92,14,4,20,0.00
2014-3-22,51,40,30,35,19,3,78,47,23,29.92,29.92,10,4,17,0.00
2014-3-23,47,33,20,24,15,8,95,52,24,29.92,29.92,10,2,15,0.01
2014-3-24,40,33,29,34,18,12,89,54,42,29.92,29.92,11,4,16,0.02
2014-3-25,47,37,25,28,14,6,99,42,24,29.92,29.92,14,2,24,0.00
2014-3-26,61,40,27,42,27,12,99,62,29,29.92,29.92,22,8,37,0.24
2014-3-27,74,53,39,62,47,34,99,82,41,29.92,29.92,30,12,38,0.04
2014-3-28,51,42,31,40,36,29,95,80,63,29.92,29.92,11,2,21,0.05
2014-3-29,66,45,30,38,34,30,99,70,29,29.92,29.92,11,2,18,0.00
2014-3-30,76,58,40,41,36,33,84,50,23,29.92,29.92,19,8,33,0.00
2014-3-31,79,64,40,54,40,22,61,44,17,29.92,29.92,29,13,40,0.00
2014-4-1,58,43,27,34,27,18,76,53,40,29.92,29.92,15,4,24,0.00
2014-4-2,56,50,45,56,48,33,99,91,53,29.92,29.92,16,6,24,0.44
2014-4-3,80,57,41,69,54,39,99,92,62,29.92,29.92,20,7,30,0.05
2014-4-4,41,39,38,39,34,34,92,83,82,29.92,29.92,19,13,30,0.00
2014-4-5,39,39,39,34,34,34,82,82,82,29.92,29.92,14,14,25,0.00
2014-4-6,39,39,39,34,34,34,82,82,82,29.92,29.92,14,14,25,0.00
2014-4-7,39,39,39,34,34,34,82,82,82,29.92,29.92,14,14,25,0.00
2014-4-8,39,39,39,34,34,34,82,82,82,29.92,29.92,14,14,25,0.00
2014-4-9,39,39,39,34,34,34,82,82,82,29.92,29.92,14,14,25,0.00
2014-4-10,39,39,39,34,34,34,82,82,82,29.92,29.92,14,14,25,0.00
2014-4-11,39,39,39,34,34,34,82,82,82,29.92,29.92,14,14,25,0.00
2014-4-18,59,42,31,40,34,30,99,77,37,0.00,40.00,8,2,13,0.00
2014-4-19,66,49,36,42,34,29,80,59,32,0.00,40.00,15,6,24,0.00
2014-4-20,71,55,42,42,38,31,86,56,23,0.00,40.00,11,3,18,0.00
2014-4-21,61,51,41,40,36,32,75,56,38,0.00,40.00,8,2,11,0.00
2014-4-22,62,51,34,54,43,26,99,76,62,0.00,40.00,9,3,18,0.01
2014-4-23,39,28,17,26,13,6,75,56,27,0.00,40.00,8,2,13,0.00
2014-4-24,61,50,20,58,45,9,99,83,50,29.92,0.00,12,3,18,0.12
2014-4-25,78,62,44,54,47,41,99,64,27,29.92,29.92,14,3,26,0.07
2014-4-26,80,66,54,62,53,43,92,62,52,29.92,29.92,16,6,31,0.07
2014-4-27,76,67,60,68,63,56,99,87,60,29.92,29.92,17,7,27,1.23
2014-4-28,63,57,50,62,49,41,99,77,57,29.92,29.92,17,6,24,0.01
2014-4-29,50,46,44,50,44,40,99,95,81,29.92,29.92,19,7,25,0.19
2014-4-30,59,47,39,46,38,32,97,73,43,29.92,29.92,18,6,26,0.01
2014-5-1,56,48,40,42,40,36,97,72,58,29.92,29.92,16,5,25,0.00
2014-5-2,71,55,38,43,39,30,99,61,24,29.92,29.92,15,4,23,0.00
2014-5-3,81,66,49,54,46,36,66,49,34,29.92,29.92,9,2,12,0.00
2014-5-4,91,73,55,59,53,49,81,53,29,29.92,29.92,11,3,17,0.01
2014-5-5,91,76,64,58,54,48,66,47,32,29.92,29.92,11,4,20,0.00
2014-5-6,87,74,59,68,62,53,93,66,48,29.92,29.92,17,6,25,0.00
2014-5-7,88,78,69,70,66,64,83,69,53,29.92,29.92,17,8,33,0.00
2014-5-8,82,72,61,69,65,56,92,77,58,29.92,29.92,19,7,30,0.11
2014-5-9,76,62,50,59,48,42,98,63,34,29.92,29.92,11,3,20,0.00
2014-5-10,85,70,53,71,60,49,90,71,53,29.92,29.92,17,4,22,0.00
2014-5-11,82,75,74,68,66,66,76,74,58,29.92,29.92,14,2,24,0.01
2014-5-12,76,65,50,72,62,48,99,92,76,30.68,29.92,122,6,122,0.40
2014-5-13,67,54,48,49,45,39,98,75,40,29.92,29.92,11,3,17,0.00
2014-5-14,64,54,47,45,41,32,91,66,35,29.92,29.92,7,1,11,0.00
2014-5-15,62,52,43,46,34,26,96,55,28,29.92,29.92,14,3,26,0.00
2014-5-16,64,49,36,44,35,27,97,63,29,29.92,29.92,7,1,15,0.17
2014-5-17,69,52,38,47,41,33,99,71,29,29.92,29.92,8,1,12,0.01
2014-5-18,74,61,46,56,48,39,80,63,44,29.92,29.92,12,5,23,0.00
2014-5-19,84,71,58,66,60,56,98,72,48,29.92,29.92,20,8,35,0.00
2014-5-20,88,77,67,71,66,63,90,72,54,29.92,29.92,14,6,26,0.00
2014-5-21,91,77,69,71,68,65,90,75,47,29.92,29.92,11,3,17,0.00
2014-5-22,84,72,63,70,63,17,99,76,46,29.92,29.92,14,4,22,0.00
2014-5-23,84,71,61,68,63,58,98,79,56,29.92,29.92,9,4,14,0.02
2014-5-24,76,68,63,71,65,58,99,90,72,29.92,29.92,10,4,36,0.45
2014-5-25,86,73,65,75,68,64,99,85,58,29.92,29.92,13,3,23,0.04
2014-5-26,84,72,66,75,68,64,99,90,67,29.92,29.92,8,3,14,0.08
2014-5-27,87,73,62,71,67,62,99,83,55,29.92,29.92,7,1,11,0.00
2014-5-28,93,76,64,74,68,21,99,80,43,29.92,29.92,8,1,14,0.35
2014-5-29,89,77,66,72,69,66,99,79,50,29.92,29.92,8,2,13,0.00
2014-5-30,86,76,67,71,68,64,99,79,50,29.92,29.92,11,4,18,0.00
2014-5-31,88,77,67,74,69,66,99,80,55,29.92,29.92,172,3,172,0.00
2014-6-1,87,76,64,75,70,63,99,83,62,29.92,29.92,21,4,31,0.54
2014-6-2,86,73,64,73,68,63,99,84,59,29.92,29.92,11,3,16,0.05
2014-6-3,90,79,69,77,73,69,99,81,62,29.92,29.92,16,4,27,0.00
2014-6-4,87,76,64,76,71,64,99,84,66,29.92,29.92,15,4,27,0.41
2014-6-5,86,73,67,71,68,64,99,86,54,29.92,29.92,22,4,35,0.90
2014-6-6,80,71,63,72,67,62,99,88,71,29.92,29.92,11,3,16,0.00
2014-6-7,82,72,64,70,67,63,99,87,64,29.92,29.92,12,3,22,0.34
2014-6-8,79,68,61,67,63,56,98,85,63,29.92,29.92,98,4,98,0.00
2014-6-9,72,65,61,67,63,60,99,95,78,29.92,29.92,14,5,23,2.08
2014-6-10,73,63,59,66,61,4,99,94,74,29.92,29.92,24,3,24,0.65
2014-6-11,83,71,58,66,63,58,99,78,54,29.92,29.92,6,1,11,0.00
2014-6-12,80,69,61,66,63,56,99,82,51,29.92,29.92,12,2,21,0.86
2014-6-13,80,68,53,58,54,51,98,64,37,29.92,29.92,10,2,16,0.00
2014-6-14,83,73,61,74,65,56,86,77,70,29.92,29.92,17,7,33,0.00
2014-6-15,84,73,64,73,69,63,99,88,71,29.92,29.92,21,5,30,0.60
2014-6-16,88,79,70,78,73,70,98,82,64,29.92,29.92,19,6,33,0.00
2014-6-17,88,81,76,78,75,72,90,81,71,29.92,29.92,19,8,28,0.00
2014-6-18,88,81,75,78,75,73,96,82,71,30.58,29.92,18,7,24,0.00
2014-6-19,86,78,74,78,74,71,98,88,70,29.92,29.92,13,4,23,0.05
2014-6-20,93,80,69,79,72,64,99,80,52,29.92,29.92,10,2,15,0.00
2014-6-21,93,80,70,77,72,69,98,77,50,29.92,29.92,10,2,17,0.00
2014-6-22,92,80,65,76,72,63,99,78,52,29.92,29.92,11,3,21,0.31
2014-6-23,83,72,66,73,69,66,99,90,71,29.92,29.92,9,1,14,0.05
2014-6-24,90,75,63,70,65,61,99,74,43,29.92,29.92,8,1,13,0.00
2014-6-25,90,78,66,73,69,66,99,75,51,29.92,29.92,8,2,11,0.00
2014-6-26,82,77,68,74,72,67,99,83,75,29.92,29.92,8,2,12,0.00
2014-6-27,82,82,82,73,73,73,75,75,75,29.92,29.92,2,2,10,0.00
2014-6-28,83,75,67,76,71,19,99,89,75,29.92,29.92,14,4,27,0.74
2014-6-29,88,77,66,82,74,65,99,91,77,29.92,29.92,14,4,21,0.04
2014-6-30,91,83,74,80,77,73,98,84,70,29.92,29.92,18,6,33,0.32
2014-7-1,86,76,68,73,67,60,99,76,46,29.92,29.92,12,3,17,0.07
2014-7-2,77,67,57,61,57,53,96,71,47,29.92,29.92,14,3,24,0.00
2014-7-3,84,69,53,60,56,51,99,68,37,29.92,29.92,6,1,9,0.00
2014-7-4,84,73,60,66,61,57,91,69,48,29.92,29.92,10,2,15,0.00
2014-7-5,86,77,68,78,71,64,93,83,71,29.92,29.92,14,5,20,0.00
2014-7-6,90,80,71,80,74,67,96,84,71,29.92,29.92,15,5,23,0.00
2014-7-7,93,82,68,79,75,67,99,80,51,29.92,29.92,16,3,28,0.40
2014-7-8,87,76,68,71,65,60,99,74,44,29.92,29.92,13,3,16,0.13
2014-7-9,91,76,62,69,64,60,99,71,38,29.92,29.92,9,2,11,0.00
2014-7-10,86,74,67,72,67,63,91,77,60,29.92,29.92,9,3,16,0.00
2014-7-11,91,79,68,79,72,65,99,82,64,29.92,29.92,11,3,17,0.00
2014-7-12,95,83,72,76,72,70,94,72,48,29.92,29.92,11,4,21,0.00
2014-7-13,91,80,71,77,72,68,97,77,57,29.92,29.92,11,1,14,0.05
2014-7-14,83,73,61,73,65,55,99,77,42,29.92,29.92,8,2,17,0.04
2014-7-15,80,66,53,58,55,52,98,69,44,29.92,29.92,11,1,14,0.00
2014-7-16,83,68,53,62,56,49,99,68,38,29.92,29.92,9,1,15,0.02
2014-7-17,81,69,59,65,59,54,96,72,45,29.92,29.92,8,2,13,0.00
2014-7-18,81,71,62,67,63,59,99,78,52,29.92,29.92,9,1,14,0.00
2014-7-19,83,71,60,68,63,60,99,78,55,29.92,29.92,9,2,14,0.00
2014-7-20,85,76,62,71,67,61,98,77,61,29.92,29.92,12,5,24,0.00
2014-7-21,85,85,85,71,71,71,63,63,63,29.92,29.92,10,10,17,0.00
2014-7-22,85,85,85,71,71,71,63,63,63,29.92,29.92,10,10,17,0.00
2014-7-23,85,85,85,71,71,71,63,63,63,29.92,29.92,10,10,17,0.00
2014-7-24,39,27,17,17,12,6,76,55,27,0.00,40.00,8,2,13,0.00
2014-7-25,97,83,20,78,70,12,89,65,48,29.92,0.00,16,6,25,0.00
2014-7-26,97,84,78,81,76,72,89,77,55,29.92,29.92,13,4,19,0.04
2014-7-27,93,82,70,78,68,56,99,66,32,29.92,29.92,13,2,21,0.00
2014-7-28,86,73,59,66,61,57,99,70,44,29.92,29.92,10,2,14,0.00
2014-7-29,88,73,59,65,61,56,99,69,36,29.92,29.92,8,1,13,0.00
2014-7-30,80,72,64,66,63,61,98,74,54,29.92,29.92,4,0,7,0.01
2014-7-31,89,73,60,65,61,56,99,70,36,29.92,29.92,7,1,10,0.00
2014-8-1,89,75,64,70,64,60,95,71,44,29.92,29.92,8,2,11,0.00
2014-8-2,92,78,64,69,65,61,98,67,39,29.92,29.92,8,2,12,0.00
2014-8-3,91,74,66,72,66,62,99,76,43,29.92,29.92,10,2,15,0.41
2014-8-4,95,80,68,74,68,64,90,70,42,29.92,29.92,11,3,17,0.00
2014-8-5,98,83,72,74,70,66,92,69,42,29.92,29.92,8,2,13,0.00
2014-8-6,96,78,68,76,71,68,99,80,47,29.92,29.92,23,3,34,1.65
2014-8-7,90,76,68,75,71,68,99,86,54,29.92,29.92,7,1,10,0.04
2014-8-8,89,76,68,74,70,67,99,84,61,29.92,29.92,8,2,11,0.00
2014-8-9,87,74,68,74,71,68,99,89,67,29.92,29.92,10,2,14,0.00
2014-8-10,86,74,68,77,71,68,99,92,69,29.92,29.92,9,2,14,0.39
2014-8-11,86,74,64,74,66,59,99,79,48,29.92,29.92,15,2,18,0.01
2014-8-12,83,69,57,61,59,54,99,72,42,29.92,29.92,11,2,17,0.00
2014-8-13,88,72,58,66,60,55,99,71,37,29.92,29.92,6,1,9,0.00
2014-8-14,68,62,61,63,60,59,95,94,84,29.92,29.92,4,0,5,0.00
2014-8-15,62,59,20,60,56,9,95,93,53,29.92,29.92,4,0,9,0.00
2014-8-16,88,77,22,77,70,12,99,82,57,29.92,0.00,13,3,16,0.00
2014-8-17,87,74,66,73,69,65,99,87,61,29.92,29.92,6,1,9,0.00
2014-8-18,98,78,64,73,69,63,99,76,36,29.92,29.92,8,1,11,0.00
2014-8-19,100,83,72,75,71,67,92,70,37,29.92,29.92,10,2,15,0.01
2014-8-20,95,84,75,76,72,68,90,70,48,29.92,29.92,13,4,21,0.00
2014-8-21,98,85,76,76,73,70,88,69,47,29.92,29.92,14,5,23,0.00
2014-8-22,99,83,76,77,74,70,90,75,47,29.92,29.92,17,3,29,0.05
2014-8-23,100,86,75,75,70,64,94,64,32,29.92,29.92,11,4,18,0.00
2014-8-24,100,85,72,75,70,68,89,65,41,29.92,29.92,10,3,17,0.00
2014-8-25,100,86,72,75,72,68,92,66,40,29.92,29.92,10,2,17,0.00
2014-8-26,98,84,74,77,73,22,94,72,43,29.92,29.92,11,3,16,0.00
2014-8-27,93,81,72,77,74,69,94,80,58,29.92,29.92,14,3,18,0.00
2014-8-28,95,83,74,76,71,66,99,71,46,29.92,29.92,10,3,15,0.00
2014-8-29,88,77,70,75,69,65,98,76,53,29.92,29.92,10,2,17,0.13
2014-8-30,98,80,69,73,68,64,98,71,36,29.92,29.92,8,2,11,0.01
2014-8-31,96,85,69,76,71,68,99,67,43,29.92,29.92,13,6,25,0.00
2014-9-1,95,95,95,70,70,70,44,44,44,29.92,29.92,10,10,25,0.00
2014-9-2,95,95,95,70,70,70,44,44,44,29.92,29.92,10,10,25,0.00
2014-9-3,95,84,65,78,72,64,99,69,44,29.92,29.92,15,7,25,2.98
2014-9-4,93,83,75,75,72,69,92,72,50,29.92,29.92,14,6,31,0.00
2014-9-5,85,74,62,74,68,60,96,84,66,29.92,29.92,14,2,20,0.63
2014-9-6,80,67,58,61,57,53,97,72,43,29.92,29.92,2,0,6,0.00
2014-9-7,82,68,57,60,57,54,94,70,43,29.92,29.92,4,0,13,0.00
2014-9-8,86,72,59,72,65,55,92,79,64,29.92,29.92,9,0,17,0.00
2014-9-9,93,81,71,77,72,69,95,78,56,29.92,29.92,14,1,21,0.00
2014-9-10,82,72,61,74,68,57,99,88,68,29.92,29.92,13,1,23,0.14
2014-9-11,63,58,54,58,54,51,99,88,75,29.92,29.92,3,0,8,0.01
2014-9-12,58,53,46,52,48,41,94,83,72,29.92,29.92,5,0,14,0.00
2014-9-13,66,52,38,51,44,38,99,77,48,29.92,29.92,5,0,10,0.00
2014-9-14,74,62,53,61,54,47,88,75,60,29.92,29.92,9,0,13,0.00
2014-9-15,75,65,55,68,61,52,96,87,77,29.92,29.92,10,1,15,0.00
2014-9-16,77,62,50,60,54,49,99,79,48,29.92,29.92,3,0,5,0.00
2014-9-17,80,69,63,73,66,59,99,90,73,29.92,29.92,3,0,6,0.67
2014-9-18,75,66,62,66,63,60,99,91,72,29.92,29.92,4,0,11,0.00